STARLINK-32370, 61635

Orbit data source: Space-Track

STARLINK-32370, 61635 is a payload satellite owned by SpaceX/Seattle (US) in LEO that was launched on Wed, 23 Oct 2024 UTC via an FALCON 9 launch vehicle from the Air Force Eastern Test Range (AFETR). Payload-class satellites include a variety of spacecraft equipped with specific instruments for various scientific and technological missions. These include communications satellites like Starlink; space stations such as the ISS; scientific satellites like the Hubble; Earth observation satellites from companies like Planet Labs, Umbra, and HawkEye 360; GPS; miniature CubeSats for education and research; and military/defense satellites.

Loading next visibility...
Identifier
61635, 2024-191Q
Orbit
LEO
Country
Flag of USUS
Related business
Manufacturer
SpaceX/Seattle
Mission
Operational Commercial Communications
Bus & Motor
STARLINK V2M, Unknown motor
Mass
730 kg wet, ~700 kg dry
Launch date (UTC)
2024-10-23 (1 year ago)
Launch vehicle
FALCON 9
Launch site
Air Force Eastern Test Range (AFETR)
Object type
Payload
Rocket body
Debris
Shape & HBR
Box + 2 Pan, 17.7 m
Radar Cross Section
33.884 m², Large (>1 m²)

Expand to show TLE details & history
Last TLE update: 14 hours ago

TLE from 14 hours ago
0 STARLINK-32370
1 61635U 24191Q   26062.69784740 -.00006397  00000-0 -22297-3 0  9991
2 61635  43.0009 188.0304 0000512 243.7594 116.3205 15.27605401 76625
Epoch: 2026-03-03T16:44Z
TLE epoch observation values (Epoch: 2026-03-03T16:44:54.015Z)
Latitude
-0.00002°
Longitude
135.33214°
Altitude
482.904 km
Speed
7.626 km/s
True Right ascension
12h 32m 07s
True Declination
0° 00' 00"
Sunlit
Object was in full shadow at epoch
Visualization orbit readout
Latitude
Unknown
Longitude
Unknown
Altitude
Unknown
Speed
Unknown
Apparent Right ascension
Unknown
Apparent Declination
Unknown
Sunlit
N/A
Visualization observer readout
Local Sidereal Time
10:54:09
Azimuth
Unknown
Elevation
Unknown
Doppler factor
Unknown
Orbital elements
Apogee altitude
485.269 km
Perigee altitude
484.567 km
Semi-major axis
6,863.055 km
Eccentricity
0.00005
Inclination
43.0009°
RAAN
188.0304°
Arg. of periapsis
243.7594°
True anomaly
116.32576°
Mean anomaly
116.3205°
Eccentric anomaly
116.32313°
Mean motion
3.81739 °/min
Orbital period
94.31 mins
BSTAR
-0.00022297
Loading maneuver chart data...
Computing Atmospheric mass density...
Loading historical data...
Loading historical data...
Loading historical data...
Loading historical data...
Loading historical data...
Loading historical data...
Loading historical data...

Documentation

Showing up to 5 results
|